When you browse on this site, cookies collect data to enhance your experience and personalize the content and advertising you see.
Visit our Privacy Policy to learn more. By continuing to use the site, you agree to this use of cookies and data.
  • In Hungary
  • List of Countries
  • For 7 days
  • Water Temperature
  • Satellite Maps
  • Weather Map
  • News
  • Weather Widgets
  • user-avatar
    Login

    Hourly Weather Płock

    Today, 21 February, Thursday

    Time Temperature Precipitation Wind Pressure Humidity
    00:00 +1°C° 0 mm 3 mps 756 mmHg 91%
    01:00 +1°C° 0 mm 3 mps 757 mmHg 93%
    02:00 +1°C° 0 mm 3 mps 757 mmHg 94%
    03:00 +1°C° 0 mm 3 mps 757 mmHg 94%
    04:00 +2°C° 0 mm 2 mps 757 mmHg 94%
    05:00 +1°C° 0.2 mm 3 mps 757 mmHg 95%
    06:00 +2°C° 0.2 mm 3 mps 757 mmHg 95%
    07:00 +2°C° 0.2 mm 3 mps 757 mmHg 95%
    08:00 +3°C° 0.1 mm 4 mps 757 mmHg 93%
    09:00 +4°C° 0.1 mm 4 mps 757 mmHg 90%
    10:00 +3°C° 0.1 mm 5 mps 757 mmHg 87%
    11:00 +3°C° 0.6 mm 5 mps 756 mmHg 87%
    12:00 +3°C° 0.6 mm 5 mps 756 mmHg 88%
    13:00 +3°C° 0.6 mm 5 mps 756 mmHg 88%
    14:00 +3°C° 0.9 mm 5 mps 755 mmHg 89%
    15:00 +3°C° 0.9 mm 5 mps 755 mmHg 89%
    16:00 +3°C° 0.9 mm 5 mps 755 mmHg 90%
    17:00 +3°C° 0.5 mm 5 mps 754 mmHg 90%
    18:00 +3°C° 0.5 mm 5 mps 754 mmHg 91%
    19:00 +5°C° 0.5 mm 5 mps 754 mmHg 92%
    20:00 +5°C° 0.8 mm 4 mps 754 mmHg 93%
    21:00 +5°C° 0.8 mm 4 mps 754 mmHg 93%
    22:00 +5°C° 0.8 mm 4 mps 753 mmHg 94%
    23:00 +4°C° 0.7 mm 4 mps 754 mmHg 94%

    Tomorrow, 22 February, Friday

    Time Temperature Precipitation Wind Pressure Humidity
    00:00 +4°C° 0.7 mm 4 mps 754 mmHg 93%
    01:00 +3°C° 0.7 mm 5 mps 755 mmHg 93%
    02:00 +1°C° 0.1 mm 5 mps 755 mmHg 89%
    03:00 -2°C° 0.1 mm 6 mps 756 mmHg 85%
    04:00 -3°C° 0.1 mm 7 mps 757 mmHg 82%
    05:00 -4°C° 0 mm 7 mps 758 mmHg 77%
    06:00 -4°C° 0 mm 6 mps 760 mmHg 71%
    07:00 -5°C° 0 mm 6 mps 761 mmHg 66%
    08:00 -4°C° 0 mm 6 mps 762 mmHg 61%
    09:00 -4°C° 0 mm 6 mps 764 mmHg 57%
    10:00 -4°C° 0 mm 6 mps 765 mmHg 53%
    11:00 -4°C° 0 mm 6 mps 766 mmHg 49%
    12:00 -2°C° 0 mm 5 mps 766 mmHg 46%
    13:00 -2°C° 0 mm 5 mps 767 mmHg 42%
    14:00 -2°C° 0 mm 4 mps 767 mmHg 43%
    15:00 -2°C° 0 mm 4 mps 768 mmHg 44%
    16:00 -3°C° 0 mm 4 mps 768 mmHg 45%
    17:00 -3°C° 0 mm 4 mps 768 mmHg 48%
    18:00 -4°C° 0 mm 3 mps 769 mmHg 51%
    19:00 -5°C° 0 mm 3 mps 770 mmHg 55%
    20:00 -5°C° 0 mm 3 mps 770 mmHg 52%
    21:00 -5°C° 0 mm 3 mps 771 mmHg 50%
    22:00 -5°C° 0 mm 3 mps 771 mmHg 48%
    23:00 -5°C° 0 mm 3 mps 771 mmHg 46%

    Day after tomorrow, 23 February, Saturday

    Time Temperature Precipitation Wind Pressure Humidity
    00:00 -5°C° 0 mm 3 mps 772 mmHg 44%
    01:00 -4°C° 0 mm 2 mps 772 mmHg 42%
    02:00 -4°C° 0 mm 2 mps 772 mmHg 42%
    03:00 -2°C° 0 mm 1 mps 771 mmHg 43%
    04:00 -2°C° 0 mm 1 mps 771 mmHg 44%
    05:00 -3°C° 0 mm 1 mps 772 mmHg 44%
    06:00 -3°C° 0 mm 1 mps 772 mmHg 45%
    07:00 -3°C° 0 mm 1 mps 772 mmHg 46%
    08:00 -2°C° 0 mm 1 mps 772 mmHg 42%
    09:00 -1°C° 0 mm 1 mps 772 mmHg 38%
    10:00 -1°C° 0 mm 1 mps 772 mmHg 35%
    11:00 0°C° 0 mm 1 mps 772 mmHg 33%
    12:00 +1°C° 0 mm 1 mps 772 mmHg 31%
    13:00 +1°C° 0 mm 1 mps 772 mmHg 29%
    14:00 +1°C° 0 mm 1 mps 772 mmHg 30%
    15:00 +1°C° 0 mm 1 mps 772 mmHg 32%
    16:00 +1°C° 0 mm 1 mps 771 mmHg 33%
    17:00 +1°C° 0 mm 1 mps 771 mmHg 36%
    18:00 -1°C° 0 mm 2 mps 771 mmHg 39%
    19:00 -2°C° 0 mm 2 mps 771 mmHg 42%
    20:00 -2°C° 0 mm 2 mps 771 mmHg 44%
    21:00 -2°C° 0 mm 2 mps 770 mmHg 46%
    22:00 -3°C° 0 mm 2 mps 770 mmHg 47%
    23:00 -3°C° 0 mm 2 mps 770 mmHg 47%

    24 February, Sunday

    Time Temperature Precipitation Wind Pressure Humidity
    00:00 -2°C° 0 mm 3 mps 770 mmHg 47%
    01:00 -2°C° 0 mm 3 mps 769 mmHg 47%
    02:00 -2°C° 0 mm 3 mps 769 mmHg 47%
    03:00 -2°C° 0 mm 3 mps 768 mmHg 48%
    04:00 -4°C° 0 mm 3 mps 768 mmHg 48%
    05:00 -4°C° 0 mm 3 mps 768 mmHg 50%
    06:00 -2°C° 0 mm 3 mps 767 mmHg 51%
    07:00 -2°C° 0 mm 3 mps 767 mmHg 52%
    08:00 -1°C° 0 mm 3 mps 767 mmHg 53%
    09:00 0°C° 0 mm 3 mps 767 mmHg 53%
    10:00 +1°C° 0 mm 3 mps 767 mmHg 53%
    11:00 0°C° 0 mm 4 mps 767 mmHg 57%
    12:00 +1°C° 0 mm 4 mps 766 mmHg 60%
    13:00 +3°C° 0 mm 4 mps 766 mmHg 63%
    14:00 +3°C° 0 mm 3 mps 765 mmHg 68%
    15:00 +3°C° 0 mm 3 mps 765 mmHg 72%
    16:00 +4°C° 0 mm 3 mps 765 mmHg 76%
    17:00 +3°C° 0 mm 4 mps 764 mmHg 79%
    18:00 +1°C° 0 mm 4 mps 764 mmHg 82%
    19:00 +1°C° 0 mm 4 mps 764 mmHg 85%
    20:00 +1°C° 0 mm 5 mps 764 mmHg 87%
    21:00 +1°C° 0 mm 5 mps 764 mmHg 89%
    22:00 0°C° 0 mm 5 mps 764 mmHg 91%
    23:00 +1°C° 0 mm 5 mps 764 mmHg 90%

    25 February, Monday

    Time Temperature Precipitation Wind Pressure Humidity
    00:00 +1°C° 0 mm 5 mps 764 mmHg 90%
    01:00 +1°C° 0 mm 6 mps 764 mmHg 90%
    02:00 +1°C° 0 mm 5 mps 765 mmHg 89%
    03:00 0°C° 0 mm 5 mps 765 mmHg 89%
    04:00 0°C° 0 mm 5 mps 765 mmHg 88%
    05:00 -1°C° 0 mm 5 mps 765 mmHg 88%
    06:00 -1°C° 0 mm 5 mps 766 mmHg 88%
    07:00 -1°C° 0 mm 5 mps 766 mmHg 89%
    08:00 0°C° 0 mm 5 mps 766 mmHg 81%
    09:00 +1°C° 0 mm 6 mps 766 mmHg 74%
    10:00 +2°C° 0 mm 7 mps 767 mmHg 67%
    11:00 +3°C° 0 mm 7 mps 766 mmHg 62%
    12:00 +4°C° 0 mm 7 mps 766 mmHg 58%
    13:00 +4°C° 0 mm 7 mps 766 mmHg 53%
    14:00 +4°C° 0 mm 7 mps 766 mmHg 54%
    15:00 +4°C° 0 mm 7 mps 765 mmHg 55%
    16:00 +3°C° 0 mm 6 mps 765 mmHg 56%
    17:00 +3°C° 0 mm 6 mps 766 mmHg 62%
    18:00 +2°C° 0 mm 5 mps 766 mmHg 67%
    19:00 +1°C° 0 mm 4 mps 766 mmHg 72%
    20:00 0°C° 0 mm 4 mps 766 mmHg 74%
    21:00 +1°C° 0 mm 3 mps 766 mmHg 77%
    22:00 0°C° 0 mm 3 mps 766 mmHg 79%
    23:00 0°C° 0 mm 3 mps 766 mmHg 79%

    26 February, Tuesday

    Time Temperature Precipitation Wind Pressure Humidity
    00:00 0°C° 0 mm 3 mps 765 mmHg 79%
    01:00 -1°C° 0 mm 4 mps 765 mmHg 78%
    02:00 -1°C° 0 mm 3 mps 765 mmHg 79%
    03:00 -1°C° 0 mm 3 mps 764 mmHg 79%
    04:00 -1°C° 0 mm 3 mps 764 mmHg 80%
    05:00 -1°C° 0 mm 3 mps 764 mmHg 80%
    06:00 -1°C° 0 mm 2 mps 763 mmHg 81%
    07:00 -1°C° 0 mm 2 mps 763 mmHg 82%
    08:00 0°C° 0 mm 3 mps 763 mmHg 78%
    09:00 +2°C° 0 mm 3 mps 762 mmHg 73%
    10:00 +3°C° 0 mm 3 mps 762 mmHg 69%
    11:00 +4°C° 0 mm 4 mps 762 mmHg 67%
    12:00 +5°C° 0 mm 4 mps 761 mmHg 64%
    13:00 +6°C° 0 mm 4 mps 760 mmHg 61%
    14:00 +6°C° 0 mm 4 mps 760 mmHg 63%
    15:00 +7°C° 0 mm 4 mps 759 mmHg 64%
    16:00 +7°C° 0 mm 4 mps 759 mmHg 66%
    17:00 +6°C° 0 mm 4 mps 758 mmHg 70%
    18:00 +5°C° 0 mm 4 mps 758 mmHg 74%
    19:00 +4°C° 0 mm 4 mps 758 mmHg 78%
    20:00 +4°C° 0 mm 4 mps 758 mmHg 80%
    21:00 +3°C° 0 mm 4 mps 758 mmHg 83%
    22:00 +3°C° 0 mm 4 mps 757 mmHg 85%
    23:00 +1°C° 0 mm 4 mps 757 mmHg 87%
    Show more